Regional Weather Roundup
Issued by NWS

Home | Current Version | Previous Version | Text Only | Print | Product List | Glossary Off
Versions: 1 2 3 4 5 6 7 8 9 10 11 12 13 14 15 16 17 18 19 20 21 22 23 24 25 26 27 28 29 30 31 32 33 34 35 36 37 38 39 40 41 42 43 44 45 46 47 48 49 50

000
ASUS43 KLMK 251810
RWRKY
KENTUCKY REGIONAL WEATHER ROUNDUP
NATIONAL WEATHER SERVICE LOUISVILLE KY
200 PM EDT TUE APR 25 2017

NOTE "FAIR" INDICATES FEW OR NO CLOUDS BELOW 12,000 FEET
WITH NO SIGNIFICANT WEATHER AND/OR OBSTRUCTIONS TO VISIBILITY.

KYZ001>023-026-027-061>063-070>075-251900-
WESTERN AND SOUTH CENTRAL KENTUCKY

CITY           SKY/WX    TMP DP  RH WIND       PRES   REMARKS
PADUCAH        SUNNY     76  51  41 S10       29.70F
HENDERSON      MOSUNNY   75  56  51 SE9       29.72F
OWENSBORO      PTSUNNY   74  58  57 SW10      29.74F
HOPKINSVILLE   MOSUNNY   73  56  56 SE6       29.75F
BOWLING GREEN  MOSUNNY   73  57  57 S5        29.76F
GLASGOW        CLOUDY    71  54  54 CALM      29.76F
$$

KYZ024-025-028>034-038-045-046-053-251900-
NORTH CENTRAL KENTUCKY

CITY           SKY/WX    TMP DP  RH WIND       PRES   REMARKS
LOUISVILLE/SDF PTSUNNY   72  55  55 E6        29.75F
LOUISVILLE/LOU CLOUDY    71  56  58 CALM      29.76F
FORT KNOX      CLOUDY    71  55  58 CALM      29.74S
$$

KYZ035>037-039>044-047>052-055>060-089>105-251900-
NORTHEAST KENTUCKY

CITY           SKY/WX    TMP DP  RH WIND       PRES   REMARKS
LEXINGTON      MOSUNNY   69  54  58 SW5       29.77F
COVINGTON      PTSUNNY   71  56  58 CALM      29.75F
FRANKFORT      PTSUNNY   71  54  54 VRB5      29.76F
$$

KYZ054-064>069-076>088-106>120-251900-
SOUTHEAST KENTUCKY

CITY           SKY/WX    TMP DP  RH WIND       PRES   REMARKS
JACKSON        CLOUDY    68  55  63 CALM      29.77F
LONDON         SUNNY     69  53  56 CALM      29.77F
SOMERSET       CLOUDY    68  52  56 CALM      29.78F
MIDDLESBORO    CLOUDY    70  55  59 E3        29.77S
MONTICELLO     CLOUDY    68  54  60 VRB5      29.79F
$$





USA.gov is the U.S. government's official web portal to all federal, state and local government web resources and services.